GW5239 Weather Reports


Display with metric or nautical units.
time (UTC)temp
F
wind
direction
speed
MPH
gust
MPH
rain 1hr
in
rain 24hr
in
rain mn
in
humidity
%
barometer
mb
20260510053017 50 344 0.0 6.0 0.00 0.00 0.00 84 1014.4
20260510051524 50 39 1.0 6.0 0.00 0.00 0.00 84 1014.4
20260510050006 50 9 1.0 5.0 0.00 0.00 0.00 84 1014.4
20260510044508 50 26 0.0 4.0 0.00 0.00 0.00 85 1014.5
20260510043012 49 9 0.0 3.0 0.00 0.00 0.00 85 1014.5
20260510041519 49 55 1.0 3.0 0.00 0.00 0.00 84 1014.4
20260510040028 50 331 0.0 2.0 0.00 0.00 0.00 84 1014.5
20260510034532 50 5 1.0 6.0 0.00 0.00 0.00 84 1014.5
20260510033012 50 17 0.0 4.0 0.00 0.00 0.00 84 1014.3
20260510031519 49 347 0.0 5.0 0.00 0.00 0.00 84 1014.4
20260510030020 49 9 0.0 2.0 0.00 0.00 0.00 84 1014.7
20260510024526 50 334 0.0 2.0 0.00 0.00 0.00 83 1014.9
20260510023028 50 355 0.0 1.0 0.00 0.00 0.00 82 1014.8
20260510021523 50 355 0.0 1.0 0.00 0.00 0.00 81 1014.9
20260510020016 51 48 0.0 2.0 0.00 0.00 0.00 81 1014.8
20260510014519 51 355 0.0 2.0 0.00 0.00 0.00 81 1014.8
20260510013023 51 336 0.0 3.0 0.00 0.00 0.00 81 1014.9
20260510011508 51 5 0.0 2.0 0.00 0.00 0.00 81 1015.2
20260510010010 51 20 0.0 2.0 0.00 0.00 0.00 80 1015.3
20260510004518 51 336 0.0 1.0 0.00 0.00 0.00 80 1015.5
20260510003004 52 350 0.0 2.0 0.00 0.00 0.00 79 1015.6
20260510001505 52 5 0.0 1.0 0.00 0.00 0.00 78 1015.7
20260510000010 53 348 0.0 2.0 0.00 0.00 0.00 78 1015.7
20260509234515 53 352 0.0 3.0 0.00 0.00 0.00 77 1015.7
20260509233020 53 355 0.0 1.0 0.00 0.00 0.00 76 1015.8
20260509231503 54 5 0.0 2.0 0.00 0.00 0.00 75 1015.7
20260509230005 54 321 0.0 3.0 0.00 0.00 0.00 75 1015.8
20260509224509 55 67 0.0 4.0 0.00 0.00 0.00 73 1015.9
20260509223014 55 340 0.0 1.0 0.00 0.00 0.00 74 1015.7
20260509221522 55 5 0.0 3.0 0.00 0.00 0.00 74 1015.8
20260509220023 55 327 0.0 3.0 0.00 0.00 0.00 74 1015.9
20260509214507 54 342 0.0 3.0 0.00 0.00 0.00 75 1015.8
20260509213011 54 9 0.0 2.0 0.00 0.00 0.00 76 1015.9
20260509211517 54 5 0.0 1.0 0.00 0.00 0.00 76 1015.9
20260509210029 55 5 0.0 1.0 0.00 0.00 0.00 76 1015.9
20260509204525 55 5 0.0 1.0 0.00 0.00 0.00 75 1015.9
20260509203009 56 5 0.0 1.0 0.00 0.00 0.00 73 1015.9
20260509201510 57 5 0.0 1.0 0.00 0.00 0.00 72 1015.9
20260509200018 58 22 0.0 0.0 0.00 0.00 0.00 68 1015.7
20260509194521 60 22 0.0 1.0 0.00 0.00 0.00 66 1015.8
20260509193028 61 14 0.0 1.0 0.00 0.00 0.00 63 1015.7
20260509191508 63 11 0.0 1.0 0.00 0.00 0.00 60 1015.8
20260509190016 64 11 0.0 2.0 0.00 0.00 0.00 58 1015.7
20260509184523 66 27 0.0 4.0 0.00 0.00 0.00 54 1015.6
20260509183023 67 355 0.0 3.0 0.00 0.00 0.00 51 1015.6
20260509181525 68 22 1.0 3.0 0.00 0.00 0.00 49 1015.5
20260509180029 69 55 1.0 4.0 0.00 0.00 0.00 48 1015.6
20260509174514 70 284 0.0 3.0 0.00 0.00 0.00 50 1015.5
20260509173020 70 360 0.0 4.0 0.00 0.00 0.00 47 1015.7
20260509171535 69 9 1.0 4.0 0.00 0.00 0.00 49 1015.5
20260509170031 69 48 1.0 4.0 0.00 0.00 0.00 49 1015.5
20260509164529 71 37 0.0 5.0 0.00 0.00 0.00 46 1015.6
20260509163024 71 355 0.0 4.0 0.00 0.00 0.00 49 1015.5
20260509161504 71 355 2.0 5.0 0.00 0.00 0.00 47 1015.5
20260509160003 72 329 1.0 5.0 0.00 0.00 0.00 47 1015.5
20260509154504 71 13 2.0 6.0 0.00 0.00 0.00 48 1015.5
20260509153003 71 18 1.0 7.0 0.00 0.00 0.00 48 1015.7
20260509151504 70 346 1.0 6.0 0.00 0.00 0.00 50 1015.7
20260509150010 72 340 2.0 8.0 0.00 0.00 0.00 49 1015.9
20260509144504 71 17 1.0 6.0 0.00 0.00 0.00 50 1015.9
20260509143004 71 360 2.0 5.0 0.00 0.00 0.00 50 1016.0
20260509141508 70 84 1.0 8.0 0.00 0.00 0.00 53 1016.1
20260509140004 70 29 1.0 4.0 0.00 0.00 0.00 53 1016.2
20260509134508 69 12 1.0 5.0 0.00 0.00 0.00 50 1016.3
20260509133003 70 111 0.0 5.0 0.00 0.00 0.00 53 1016.6
20260509131509 71 75 1.0 6.0 0.00 0.00 0.00 49 1016.6
20260509130013 70 311 1.0 8.0 0.00 0.00 0.00 53 1016.7
20260509124508 69 320 1.0 5.0 0.00 0.00 0.00 52 1016.8
20260509123004 68 31 2.0 7.0 0.00 0.00 0.00 52 1016.9
20260509121515 70 28 3.0 8.0 0.00 0.00 0.00 51 1017.1
20260509120008 71 85 1.0 4.0 0.00 0.00 0.00 50 1017.2
20260509114512 69 80 0.0 3.0 0.00 0.00 0.00 49 1017.5
20260509113012 70 58 2.0 6.0 0.00 0.00 0.00 45 1017.6
20260509111505 69 154 1.0 4.0 0.00 0.00 0.00 51 1017.6
20260509110012 68 62 1.0 3.0 0.00 0.00 0.00 50 1017.7
20260509104512 68 111 1.0 5.0 0.00 0.00 0.00 50 1017.8
20260509103012 66 198 1.0 7.0 0.00 0.00 0.00 54 1017.8
20260509101517 65 63 0.0 4.0 0.00 0.00 0.00 55 1017.8
20260509100016 64 46 0.0 7.0 0.00 0.00 0.00 54 1017.9
20260509094516 64 91 0.0 4.0 0.00 0.00 0.00 54 1018.0
20260509093012 64 55 0.0 9.0 0.00 0.00 0.00 55 1018.0
20260509091520 63 118 1.0 5.0 0.00 0.00 0.00 60 1018.0
20260509090017 63 64 0.0 5.0 0.00 0.00 0.00 61 1018.1
20260509084512 62 146 0.0 4.0 0.00 0.00 0.00 63 1018.2
20260509083018 61 344 1.0 3.0 0.00 0.00 0.00 65 1018.2
20260509081516 60 80 1.0 3.0 0.00 0.00 0.00 66 1018.3
20260509080019 59 46 1.0 3.0 0.00 0.00 0.00 67 1018.4
20260509074519 60 76 0.0 3.0 0.00 0.00 0.00 67 1018.4
20260509073020 59 351 0.0 2.0 0.00 0.00 0.00 69 1018.4
20260509071512 58 26 0.0 2.0 0.00 0.00 0.00 71 1018.4
20260509070004 58 30 0.0 3.0 0.00 0.00 0.00 71 1018.6
20260509064503 56 50 0.0 3.0 0.00 0.00 0.00 75 1018.5
20260509063006 54 80 0.0 3.0 0.00 0.00 0.00 78 1018.4
20260509061510 51 53 0.0 3.0 0.00 0.00 0.00 86 1018.4
20260509060014 48 77 0.0 1.0 0.00 0.00 0.00 89 1018.4
20260509054504 47 80 0.0 0.0 0.00 0.00 0.00 92 1018.3